CAPE
719 575 704 334 281 123 23 98 422 822 914 876 717 681 547 331 110 0 0 0 0 0
610 532 458 456 313 139 132 46 250 761 848 833 653 530 269 106 9 0 0 0 0 0
562 505 506 316 244 160 115 142 604 755 947 664 425 190 37 7 0 0 0 0 0 0
755 568 605 331 174 197 123 111 555 570 625 521 248 31 0 0 0 0 0 0 0 0
772 686 562 374 79 15 196 307 420 429 377 197 58 4 0 0 0 0 0 0 0 0
327 633 611 380 36 40 40 293 321 239 164 38 0 0 0 0 0 0 0 0 0 0
377 572 494 427 110 120 24 44 202 124 55 7 0 0 0 0 0 0 0 0 0 0
115 259 523 352 293 113 374 225 202 90 0 0 0 0 0 0 0 0 0 0 0 0
42 97 223 383 324 105 221 313 184 9 0 0 0 0 0 0 0 0 0 0 0 0
202 53 274 280 332 278 330 304 132 13 0 0 0 0 0 0 0 0 0 0 0 0
138 8 151 255 207 270 258 193 113 7 0 0 0 0 0 0 0 0 0 0 0 0
84 0 0 248 189 245 231 98 36 0 0 0 0 0 0 0 0 0 0 0 0 0
121 0 3 251 174 277 179 58 0 0 0 0 0 0 0 0 0 0 0 0 0 0
238 402 307 401 282 307 158 11 1 0 0 0 0 0 0 0 0 0 0 0 0 0
CIN
-12 -28 -19 -30 -37 -19 -28 -10 -18 -8 -13 -24 -29 -30 -55 -57 -127 -0 -0 -0 -0 -0
-23 -20 -13 -4 -37 -25 -6 -5 -2 -7 -13 -26 -30 -51 -82 -132 -273 -0 -0 -0 -0 -0
-30 -26 -27 -46 -43 -23 -71 -16 -0 -12 -21 -35 -68 -118 -172 -304 -0 -0 -0 -0 -0 -0
-15 -22 -34 -53 -96 -41 -4 -45 -3 -19 -28 -40 -92 -169 -0 -0 -0 -0 -0 -0 -0 -0
-10 -15 -25 -52 -140 -69 -3 -11 -12 -31 -45 -48 -115 -171 -9 -0 -0 -0 -0 -0 -0 -0
-119 -8 -15 -43 -155 -77 -80 -15 -13 -35 -65 -100 -0 -0 -0 -0 -0 -0 -0 -0 -0 -0
-97 -38 -6 -28 -92 -8 -71 -68 -18 -56 -127 -171 -0 -0 -0 -0 -0 -0 -0 -0 -0 -0
-218 -157 -25 -12 -69 -56 -0 -36 -45 -128 -0 -0 -0 -0 -0 -0 -0 -0 -0 -0 -0 -0
-268 -237 -154 -14 -46 -98 -1 -22 -52 -78 -0 -0 -0 -0 -0 -0 -0 -0 -0 -0 -0 -0
-187 -258 -145 -20 -19 -41 -25 -61 -79 -125 -0 -0 -0 -0 -0 -0 -0 -0 -0 -0 -0 -0
-173 -376 -149 -39 -9 -51 -64 -83 -157 -200 -0 -0 -0 -0 -0 -0 -0 -0 -0 -0 -0 -0
-186 -0 -0 -115 -32 -17 -80 -92 -164 -0 -0 -0 -0 -0 -0 -0 -0 -0 -0 -0 -0 -0
-95 -0 -123 -128 -7 -25 -76 -84 -15 -0 -0 -0 -0 -0 -0 -0 -0 -0 -0 -0 -0 -0
-14 -8 -36 -31 -38 -27 -39 -112 -0 -0 -0 -0 -0 -0 -0 -0 -0 -0 -0 -0 -0 -0
Wind_Speed
41 44 46 42 37 34 31 35 39 32 25 19 14 12 9 8 6 7 7 8 7 8
41 42 43 38 31 26 25 36 39 31 24 19 15 12 8 8 6 8 10 8 5 6
43 41 38 35 30 33 24 19 37 26 19 17 14 11 9 6 7 8 10 8 4 5
43 40 35 35 29 29 23 33 27 21 24 19 14 11 8 7 6 7 7 7 3 5
41 38 33 31 28 32 24 23 20 19 19 16 13 10 8 8 8 8 6 5 2 4
40 38 34 29 26 26 30 27 20 20 16 17 13 11 8 7 10 11 6 4 2 2
36 37 38 30 23 26 36 26 27 25 18 18 16 13 10 9 12 8 5 4 1 2
36 37 38 38 29 32 21 24 21 17 17 14 15 13 13 13 11 8 5 3 3 2
34 33 40 37 31 35 20 25 25 20 20 15 14 16 15 14 12 9 5 4 1 2
38 37 36 41 32 31 24 18 21 18 16 13 15 17 16 16 13 9 6 5 2 2
38 40 39 42 34 22 25 23 18 17 14 13 14 16 19 16 13 9 7 5 3 1
33 41 39 44 43 30 25 27 20 20 17 15 19 19 18 16 13 10 7 6 4 3
35 36 41 42 33 32 28 29 21 20 18 18 23 22 18 15 12 9 8 6 5 4
39 41 35 41 37 32 30 29 25 24 22 20 24 22 19 16 13 10 8 6 6 5
Wind_Direction
262 259 257 256 252 248 242 233 227 228 225 223 218 211 220 237 262 279 288 307 333 349
263 262 257 252 250 245 226 231 226 226 220 215 212 215 210 238 247 268 281 300 335 348
262 264 258 249 241 231 222 208 227 222 203 207 211 210 223 212 253 262 277 295 325 354
263 263 257 247 238 230 220 234 225 213 220 216 209 210 207 223 232 257 270 286 321 356
266 262 255 243 236 225 221 207 212 202 213 214 217 212 188 213 235 245 256 270 310 5
267 259 253 242 231 217 222 219 206 179 201 217 213 220 209 197 238 246 248 264 275 22
268 257 251 239 214 218 221 223 225 232 222 227 224 212 208 216 235 234 244 263 309 20
264 256 249 241 226 222 223 214 207 203 214 215 220 218 214 223 224 227 228 250 292 2
262 257 244 245 232 225 209 221 221 218 223 214 225 223 224 220 221 221 210 219 220 4
262 253 249 243 233 223 224 211 217 218 214 213 224 220 213 218 222 217 213 206 191 302
259 251 250 241 238 218 223 220 210 217 213 192 209 204 209 212 220 219 216 204 234 136
266 254 256 240 241 238 225 222 218 220 217 217 229 201 201 211 219 215 216 221 228 137
263 259 247 240 248 236 233 229 223 222 217 212 220 210 196 203 213 206 218 225 167 158
263 249 249 228 244 236 232 227 226 225 221 217 211 210 195 202 210 198 191 184 201 213